SCP
0 0 0 0 0 0 0 0 0 0 0 0 0 0 0 0 0 0 0 0 0 0 0 0 0 0 0 0 0 0 0 0 0 0 0 0 0 0 0 0 0 0 0 0 0
0 0 0 0 0 0 0 0 0 0 0 0 0 0 0 0 0 0 0 0 0 0 0 0 0 0 0 0 0 0 0 0 0 0 0 0 0 0 0 0 0 0 0 0 0
0 0 0 0 0 0 0 0 0 0 0 0 0 0 0 0 0 0 0 0 0 0 0 0 0 0 0 0 0 0 0 0 0 0 0 0 0 0 0 0 0 0 0 0 0
0 0 0 0 0 0 0 0 0 0 0 0 0 0 0 0 0 0 0 0 0 0 0 0 0 0 0 0 0 0 0 0 0 0 0 0 0 0 0 0 0 0 0 0 0
0 0 0 0 0 0 0 0 0 0 0 0 0 0 0 0 0 0 0 0 0 0 0 0 0 0 0 0 0 0 0 0 0 0 0 0 0 0 0 0 0 0 0 0 0
0 0 0 0 0 0 0 0 0 0 0 0 0 0 0 0 0 0 0 0 0 0 0 0 0 0 0 0 0 0 0 0 0 0 0 0 0 0 0 0 0 0 0 0 0
0 0 0 0 0 0 0 0 0 0 0 0 0 0 0 0 0 0 0 0 0 0 0 0 0 0 0 0 0 0 0 0 0 0 0 0 0 0 0 0 0 0 0 0 0
0 0 0 0 0 0 0 0 0 0 0 0 0 0 0 0 0 0 0 0 0 0 0 0 0 0 0 0 0 0 0 0 0 0 0 0 0 0 0 0 0 0 0 0 0
0 0 0 0 0 0 0 0 0 0 0 0 0 1 0 0 0 0 0 0 0 0 0 0 0 0 0 0 0 0 0 0 0 0 0 0 0 0 0 0 0 0 0 0 0
0 0 0 0 0 0 0 0 0 0 0 0 0 0 0 0 0 0 0 0 0 0 0 0 0 0 0 0 0 0 0 0 0 0 0 0 0 0 0 0 0 0 0 0 0
0 0 0 0 0 0 0 1 0 0 0 0 0 0 0 0 0 0 0 0 0 0 0 0 0 0 0 0 0 0 0 0 0 0 0 0 0 0 0 0 0 0 0 0 0
0 0 0 0 1 0 0 0 0 0 0 0 0 0 0 0 0 0 0 0 0 0 0 0 0 0 0 0 0 0 0 0 0 0 0 0 0 0 0 0 0 0 0 0 0
0 0 0 0 0 1 0 0 0 0 0 0 0 0 0 0 0 0 0 0 0 0 0 0 0 0 0 0 0 0 0 0 0 0 0 0 0 0 0 0 0 0 0 0 0
0 0 0 0 1 0 0 0 0 0 0 0 0 0 0 0 0 0 0 0 0 0 0 0 0 0 0 0 0 0 0 0 0 0 0 0 -0 0 0 0 0 0 0 0 0
0 0 0 0 0 0 0 0 0 0 0 0 0 0 0 0 0 0 0 0 0 0 0 0 0 0 0 0 0 0 0 0 0 0 0 0 0 0 0 0 0 0 0 0 0
0 0 0 1 1 0 0 0 0 0 0 0 0 0 0 0 0 0 0 0 0 0 0 0 0 0 0 0 0 0 0 0 0 0 0 0 0 0 0 0 0 0 0 0 0
0 0 0 0 0 0 1 0 0 0 0 0 0 0 0 0 0 0 0 0 0 0 0 0 0 0 0 0 0 0 0 0 0 0 0 0 0 0 0 0 0 0 0 0 0
0 0 0 0 0 1 1 0 0 0 0 0 0 0 0 0 0 0 0 0 0 0 0 0 0 0 0 0 0 0 0 0 0 0 0 0 0 0 0 0 0 0 0 0 0
0 0 0 0 0 1 1 0 0 0 0 0 0 0 0 0 0 0 0 0 0 0 0 0 0 0 0 0 0 0 0 0 0 0 0 0 0 0 0 0 0 0 0 0 0
0 0 0 0 0 0 0 0 0 0 0 0 0 0 0 0 0 0 0 0 0 0 0 0 0 0 0 0 0 0 0 0 0 0 0 0 0 0 0 0 0 0 0 0 0
0 0 0 0 0 0 0 0 0 0 0 0 0 0 0 0 0 0 0 0 0 0 0 0 0 0 0 0 0 0 0 0 0 0 0 0 0 0 0 0 -0 0 0 0 0
0 0 0 0 0 0 0 0 0 0 0 0 0 0 0 0 0 0 0 0 0 0 0 0 0 0 0 0 0 0 0 0 0 0 0 0 0 0 0 0 0 0 0 0 0
0 0 0 0 0 0 0 0 0 0 0 0 0 0 0 0 0 0 0 0 0 0 0 0 0 0 0 0 0 0 0 0 0 0 0 0 0 0 0 0 0 0 0 0 -0
0 0 0 0 -0 0 0 0 0 0 0 0 0 0 0 0 0 0 0 0 0 0 0 0 0 0 0 0 0 0 0 0 0 0 0 0 0 0 0 0 0 0 0 0 0
0 0 0 0 -0 0 0 0 0 0 0 0 0 0 0 0 0 0 0 0 0 0 0 0 0 0 0 0 0 0 0 0 0 0 0 0 0 -0 0 0 0 0 0 0 0
0 0 0 0 0 0 0 0 0 0 0 0 0 0 0 0 0 0 0 0 0 0 0 0 0 0 0 0 0 0 0 0 0 0 0 0 0 -0 0 0 0 0 0 -0 -0
0 0 0 0 0 0 0 0 0 0 0 0 0 0 0 0 0 0 0 0 0 0 0 0 0 0 0 0 0 0 0 0 0 0 0 0 0 0 0 0 0 0 0 -0 0
Wind_Speed_500mb
59 70 60 55 50 47 49 59 57 51 46 38 35 31 29 30 32 36 42 41 44 32 13 20 24 19 13 6 4 3 9 13 11 12 8 15 16 9 11 11 13 15 7 6 20
64 60 68 62 56 51 47 53 61 53 49 41 35 33 30 29 30 39 43 42 44 36 36 19 16 17 9 4 4 10 10 13 6 15 13 17 15 16 10 18 16 14 21 14 15
66 63 62 66 62 58 52 49 58 61 50 47 39 35 30 28 18 40 40 43 42 41 35 34 25 16 17 9 10 7 20 4 2 4 11 20 18 18 14 13 21 23 24 25 22
70 66 61 65 65 63 58 52 51 63 56 48 45 37 32 27 12 11 22 40 45 42 36 33 27 19 15 18 13 13 9 6 2 0 1 8 5 13 25 14 10 18 16 27 31
71 72 68 62 67 67 62 58 52 58 63 49 48 43 38 33 34 8 8 22 50 43 42 36 30 26 23 17 16 18 15 7 4 3 5 8 10 12 22 23 25 20 19 24 34
68 70 67 64 59 72 65 63 56 54 65 55 50 50 49 36 43 54 43 18 41 49 45 40 23 26 15 13 28 18 20 13 10 7 7 11 15 9 16 33 26 31 28 27 34
70 69 67 66 60 63 80 64 63 56 65 61 52 53 49 46 27 51 48 35 28 51 45 47 20 23 15 10 8 8 13 11 17 13 14 8 20 28 43 30 29 36 42 39 37
74 72 72 66 59 61 62 84 70 61 63 65 51 53 32 52 44 28 52 30 32 42 40 38 36 20 7 16 7 12 9 24 13 17 12 17 45 31 20 26 34 37 36 33 43
81 75 71 69 69 62 55 87 66 63 59 65 48 48 30 40 59 46 36 40 35 31 28 28 34 14 14 14 10 13 21 29 20 23 10 30 33 36 24 24 39 38 33 36 40
75 74 73 73 66 61 65 68 80 62 55 56 47 32 34 51 57 58 41 35 40 33 29 24 19 18 17 24 23 20 19 16 20 13 22 31 32 37 37 24 30 34 36 37 40
70 73 74 75 72 60 55 73 65 36 66 72 58 50 27 34 50 58 55 48 41 39 20 22 16 32 41 32 24 10 28 23 9 12 11 31 36 35 52 49 50 50 50 50 51
73 71 69 78 76 70 62 92 72 33 50 87 30 73 32 51 32 59 63 41 33 29 40 15 38 35 27 32 29 28 23 19 13 8 8 27 40 34 51 58 57 57 56 58 56
70 71 75 75 78 77 71 87 58 54 16 65 63 72 45 56 38 63 72 48 43 40 43 41 22 29 29 26 34 36 32 27 21 10 21 25 52 46 42 66 61 64 63 61 61
77 75 69 74 75 86 91 76 59 64 11 21 47 37 60 42 27 61 72 48 16 45 40 33 23 35 17 23 22 31 18 17 21 12 17 4 28 35 20 26 27 31 41 49 54
90 79 83 81 79 79 114 88 61 50 21 31 57 34 56 43 48 51 71 35 40 19 13 17 33 35 38 31 22 20 11 20 23 22 23 37 20 16 26 28 34 40 47 51 51
70 78 78 75 81 87 76 77 77 18 24 22 43 39 42 58 30 56 39 39 24 21 28 16 3 26 29 17 27 18 14 8 8 10 17 33 27 38 34 36 33 44 45 44 43
74 78 77 79 95 74 87 85 22 34 25 16 32 49 59 33 40 28 39 27 21 21 19 4 11 4 18 19 17 26 26 8 13 13 19 3 25 45 12 12 18 29 32 34 31
72 76 81 90 90 88 93 29 36 17 33 10 45 63 48 49 36 30 51 33 33 25 16 24 12 26 18 23 17 29 36 11 14 11 7 4 22 17 4 12 28 39 42 36 37
80 74 78 88 89 93 77 38 32 40 15 36 51 54 20 32 24 25 46 32 32 45 28 26 17 11 22 15 25 24 28 12 1 4 6 12 24 37 37 41 53 43 48 54 42
74 72 80 91 91 94 36 30 14 27 30 48 41 42 35 45 39 40 34 47 28 47 26 20 16 6 8 10 10 17 19 8 7 10 14 19 26 28 27 15 3 18 31 19 15
76 37 70 82 98 65 30 41 13 34 49 46 41 37 41 43 49 44 26 17 36 49 17 21 8 9 12 22 31 13 21 12 6 9 11 10 15 37 37 22 31 26 10 29 34
65 14 64 89 23 30 37 14 29 42 38 15 24 25 55 55 35 32 27 15 33 49 24 9 11 11 20 6 11 36 31 34 16 16 15 17 22 24 22 10 9 11 25 36 35
23 30 45 85 19 27 16 13 21 54 41 20 22 16 41 34 27 29 29 14 50 42 39 22 13 13 8 6 4 21 36 39 37 1 25 17 18 16 15 14 9 16 31 44 64
19 12 20 43 39 22 27 23 17 59 20 11 19 29 37 37 21 22 24 4 31 46 35 32 9 24 27 10 18 25 42 47 40 26 41 33 48 65 42 34 44 37 42 51 74
14 7 16 9 23 11 36 35 35 21 8 33 26 48 50 24 19 21 30 14 14 35 22 16 22 20 3 4 14 18 34 45 49 57 38 55 46 73 50 34 20 38 61 63 54
6 8 10 5 30 16 30 39 46 29 31 28 36 51 46 38 27 38 26 26 20 27 23 9 7 13 10 10 8 14 27 43 55 60 52 49 47 69 56 49 58 63 42 37 49
9 18 1 17 29 30 23 52 64 35 7 21 54 48 29 34 45 56 36 45 29 32 31 20 16 17 16 12 10 22 52 41 42 48 52 47 73 74 45 37 46 48 28 44 39
Wind_Direction_500mb
242 237 240 234 236 234 224 219 221 224 228 228 226 229 236 241 241 235 232 232 232 234 225 230 239 246 260 267 255 285 237 227 195 183 152 155 199 188 198 163 191 189 190 224 199
241 240 240 237 232 234 232 223 217 219 223 226 224 224 231 240 248 247 233 231 230 233 231 219 226 223 215 200 219 226 241 240 211 185 165 165 196 177 201 192 204 201 214 226 211
241 238 238 236 234 229 230 227 220 215 217 220 223 220 223 234 256 261 244 233 228 231 229 229 223 204 206 191 196 205 238 305 265 277 178 170 176 175 190 224 228 217 204 212 221
245 241 237 236 235 231 226 227 224 216 213 216 217 218 215 211 224 239 235 221 224 224 220 216 202 194 204 203 186 215 238 262 317 262 328 192 190 187 202 217 236 217 202 222 221
240 243 238 235 233 235 226 224 224 219 211 213 212 210 204 198 219 213 16 227 206 213 213 204 196 203 210 201 169 218 209 220 240 262 257 282 225 263 237 236 239 228 235 240 233
238 237 237 235 235 230 229 222 221 220 210 210 209 209 207 219 228 230 254 276 219 205 203 199 205 199 209 201 209 196 211 225 245 235 247 250 250 251 238 235 238 236 243 252 247
237 235 233 228 226 225 226 222 218 218 209 207 207 207 211 217 230 223 236 248 239 212 207 200 190 187 168 162 177 164 216 226 229 228 239 221 239 236 251 256 256 250 251 246 249
238 235 229 227 223 225 226 227 214 213 209 204 206 205 223 227 219 212 219 225 205 209 214 213 201 193 160 128 110 209 239 242 206 202 223 206 258 238 256 232 251 253 250 248 245
240 236 233 226 222 219 222 217 211 211 207 199 201 201 226 218 215 216 205 210 191 197 203 205 199 190 148 183 185 207 239 231 253 206 216 210 258 255 250 238 255 260 258 253 253
234 233 230 225 218 219 219 216 217 208 199 193 203 197 221 202 197 204 200 195 168 176 164 174 184 200 200 200 214 202 218 219 226 194 226 237 247 262 254 249 255 264 260 261 255
230 229 227 226 218 211 206 198 187 188 187 193 195 201 189 185 199 199 193 175 168 184 190 196 200 210 203 216 226 249 225 232 236 229 250 246 252 253 263 262 263 257 259 262 262
228 226 218 222 218 213 211 207 206 180 182 208 217 201 192 176 171 191 186 180 185 195 195 182 219 213 210 202 214 222 227 226 252 245 255 269 263 252 262 259 254 257 257 258 263
221 222 218 215 214 211 210 210 195 182 170 208 216 201 184 186 177 184 185 189 188 196 196 208 215 188 188 197 209 220 225 233 248 307 271 283 279 262 244 259 256 253 253 258 258
216 215 216 212 211 211 217 204 195 182 202 177 204 209 196 184 198 188 187 174 177 199 198 219 190 184 179 201 192 228 202 239 246 277 262 12 283 275 260 254 257 246 244 250 254
220 215 214 209 202 204 214 211 214 171 224 161 186 200 184 181 148 183 189 192 189 155 165 194 183 186 200 203 194 238 162 216 232 240 270 259 271 256 246 255 260 257 254 254 254
207 213 206 205 208 209 200 203 193 222 204 155 157 175 160 199 190 159 172 191 177 162 191 186 225 189 193 169 191 146 138 140 175 228 245 241 234 270 250 256 252 259 259 263 263
203 213 206 204 206 194 191 168 204 217 144 167 164 165 173 177 184 176 176 172 173 165 180 95 161 138 163 153 166 181 175 190 208 207 243 276 210 250 278 291 279 266 262 273 272
211 211 209 209 202 192 183 188 219 137 163 158 168 168 175 163 180 186 190 185 196 187 154 186 201 182 167 197 177 193 188 194 207 208 215 129 224 257 68 270 266 263 272 281 276
205 210 210 207 202 196 186 199 204 161 167 156 162 161 150 179 179 173 203 195 185 187 174 177 180 169 186 166 159 189 213 218 313 106 266 224 254 277 264 261 260 263 269 278 289
206 205 209 201 202 200 199 204 152 154 150 159 170 168 163 173 175 193 188 199 178 195 192 177 158 230 151 165 223 186 161 163 180 217 236 248 254 254 247 277 132 257 315 303 333
201 204 212 200 198 200 217 200 134 168 165 165 167 174 182 171 191 195 184 158 188 192 173 159 126 136 170 207 180 166 197 207 203 207 234 262 245 248 273 269 257 277 330 336 339
190 189 203 200 217 208 205 171 145 165 177 172 172 189 175 174 174 173 184 165 175 170 180 162 116 141 195 20 307 215 203 194 199 201 239 267 270 264 278 174 205 303 341 339 329
181 188 187 188 209 183 159 151 159 168 164 171 157 192 164 164 179 183 190 144 179 172 178 171 156 130 123 246 228 223 218 225 229 190 220 211 249 82 60 231 197 333 330 320 316
205 163 161 182 201 196 144 153 143 171 154 126 143 142 142 159 103 167 168 127 185 181 169 155 152 202 212 190 153 204 212 214 212 218 232 222 252 270 244 260 280 305 312 303 308
213 167 168 167 186 220 148 151 141 150 136 147 161 160 152 151 143 157 154 134 171 172 162 154 204 204 175 120 193 222 209 208 211 223 222 241 240 256 265 271 283 298 292 303 307
250 98 162 117 150 172 158 165 156 164 158 169 164 166 160 162 172 155 147 171 170 183 170 176 154 153 219 174 225 248 235 216 216 224 228 245 263 254 268 275 283 283 297 301 306
171 121 30 152 158 173 178 166 163 155 224 154 157 155 166 164 151 165 166 171 157 176 179 157 141 165 218 221 239 275 234 225 227 228 228 232 239 258 270 270 269 284 278 299 302
Wind_Speed_850mb
59 70 60 55 50 47 49 59 57 51 46 38 35 31 29 30 32 36 42 41 44 32 13 20 24 19 13 6 4 3 9 13 11 12 8 15 16 9 11 11 13 15 7 6 20
64 60 68 62 56 51 47 53 61 53 49 41 35 33 30 29 30 39 43 42 44 36 36 19 16 17 9 4 4 10 10 13 6 15 13 17 15 16 10 18 16 14 21 14 15
66 63 62 66 62 58 52 49 58 61 50 47 39 35 30 28 18 40 40 43 42 41 35 34 25 16 17 9 10 7 20 4 2 4 11 20 18 18 14 13 21 23 24 25 22
70 66 61 65 65 63 58 52 51 63 56 48 45 37 32 27 12 11 22 40 45 42 36 33 27 19 15 18 13 13 9 6 2 0 1 8 5 13 25 14 10 18 16 27 31
71 72 68 62 67 67 62 58 52 58 63 49 48 43 38 33 34 8 8 22 50 43 42 36 30 26 23 17 16 18 15 7 4 3 5 8 10 12 22 23 25 20 19 24 34
68 70 67 64 59 72 65 63 56 54 65 55 50 50 49 36 43 54 43 18 41 49 45 40 23 26 15 13 28 18 20 13 10 7 7 11 15 9 16 33 26 31 28 27 34
70 69 67 66 60 63 80 64 63 56 65 61 52 53 49 46 27 51 48 35 28 51 45 47 20 23 15 10 8 8 13 11 17 13 14 8 20 28 43 30 29 36 42 39 37
74 72 72 66 59 61 62 84 70 61 63 65 51 53 32 52 44 28 52 30 32 42 40 38 36 20 7 16 7 12 9 24 13 17 12 17 45 31 20 26 34 37 36 33 43
81 75 71 69 69 62 55 87 66 63 59 65 48 48 30 40 59 46 36 40 35 31 28 28 34 14 14 14 10 13 21 29 20 23 10 30 33 36 24 24 39 38 33 36 40
75 74 73 73 66 61 65 68 80 62 55 56 47 32 34 51 57 58 41 35 40 33 29 24 19 18 17 24 23 20 19 16 20 13 22 31 32 37 37 24 30 34 36 37 40
70 73 74 75 72 60 55 73 65 36 66 72 58 50 27 34 50 58 55 48 41 39 20 22 16 32 41 32 24 10 28 23 9 12 11 31 36 35 52 49 50 50 50 50 51
73 71 69 78 76 70 62 92 72 33 50 87 30 73 32 51 32 59 63 41 33 29 40 15 38 35 27 32 29 28 23 19 13 8 8 27 40 34 51 58 57 57 56 58 56
70 71 75 75 78 77 71 87 58 54 16 65 63 72 45 56 38 63 72 48 43 40 43 41 22 29 29 26 34 36 32 27 21 10 21 25 52 46 42 66 61 64 63 61 61
77 75 69 74 75 86 91 76 59 64 11 21 47 37 60 42 27 61 72 48 16 45 40 33 23 35 17 23 22 31 18 17 21 12 17 4 28 35 20 26 27 31 41 49 54
90 79 83 81 79 79 114 88 61 50 21 31 57 34 56 43 48 51 71 35 40 19 13 17 33 35 38 31 22 20 11 20 23 22 23 37 20 16 26 28 34 40 47 51 51
70 78 78 75 81 87 76 77 77 18 24 22 43 39 42 58 30 56 39 39 24 21 28 16 3 26 29 17 27 18 14 8 8 10 17 33 27 38 34 36 33 44 45 44 43
74 78 77 79 95 74 87 85 22 34 25 16 32 49 59 33 40 28 39 27 21 21 19 4 11 4 18 19 17 26 26 8 13 13 19 3 25 45 12 12 18 29 32 34 31
72 76 81 90 90 88 93 29 36 17 33 10 45 63 48 49 36 30 51 33 33 25 16 24 12 26 18 23 17 29 36 11 14 11 7 4 22 17 4 12 28 39 42 36 37
80 74 78 88 89 93 77 38 32 40 15 36 51 54 20 32 24 25 46 32 32 45 28 26 17 11 22 15 25 24 28 12 1 4 6 12 24 37 37 41 53 43 48 54 42
74 72 80 91 91 94 36 30 14 27 30 48 41 42 35 45 39 40 34 47 28 47 26 20 16 6 8 10 10 17 19 8 7 10 14 19 26 28 27 15 3 18 31 19 15
76 37 70 82 98 65 30 41 13 34 49 46 41 37 41 43 49 44 26 17 36 49 17 21 8 9 12 22 31 13 21 12 6 9 11 10 15 37 37 22 31 26 10 29 34
65 14 64 89 23 30 37 14 29 42 38 15 24 25 55 55 35 32 27 15 33 49 24 9 11 11 20 6 11 36 31 34 16 16 15 17 22 24 22 10 9 11 25 36 35
23 30 45 85 19 27 16 13 21 54 41 20 22 16 41 34 27 29 29 14 50 42 39 22 13 13 8 6 4 21 36 39 37 1 25 17 18 16 15 14 9 16 31 44 64
19 12 20 43 39 22 27 23 17 59 20 11 19 29 37 37 21 22 24 4 31 46 35 32 9 24 27 10 18 25 42 47 40 26 41 33 48 65 42 34 44 37 42 51 74
14 7 16 9 23 11 36 35 35 21 8 33 26 48 50 24 19 21 30 14 14 35 22 16 22 20 3 4 14 18 34 45 49 57 38 55 46 73 50 34 20 38 61 63 54
6 8 10 5 30 16 30 39 46 29 31 28 36 51 46 38 27 38 26 26 20 27 23 9 7 13 10 10 8 14 27 43 55 60 52 49 47 69 56 49 58 63 42 37 49
9 18 1 17 29 30 23 52 64 35 7 21 54 48 29 34 45 56 36 45 29 32 31 20 16 17 16 12 10 22 52 41 42 48 52 47 73 74 45 37 46 48 28 44 39
Wind_Direction_850mb
242 237 240 234 236 234 224 219 221 224 228 228 226 229 236 241 241 235 232 232 232 234 225 230 239 246 260 267 255 285 237 227 195 183 152 155 199 188 198 163 191 189 190 224 199
241 240 240 237 232 234 232 223 217 219 223 226 224 224 231 240 248 247 233 231 230 233 231 219 226 223 215 200 219 226 241 240 211 185 165 165 196 177 201 192 204 201 214 226 211
241 238 238 236 234 229 230 227 220 215 217 220 223 220 223 234 256 261 244 233 228 231 229 229 223 204 206 191 196 205 238 305 265 277 178 170 176 175 190 224 228 217 204 212 221
245 241 237 236 235 231 226 227 224 216 213 216 217 218 215 211 224 239 235 221 224 224 220 216 202 194 204 203 186 215 238 262 317 262 328 192 190 187 202 217 236 217 202 222 221
240 243 238 235 233 235 226 224 224 219 211 213 212 210 204 198 219 213 16 227 206 213 213 204 196 203 210 201 169 218 209 220 240 262 257 282 225 263 237 236 239 228 235 240 233
238 237 237 235 235 230 229 222 221 220 210 210 209 209 207 219 228 230 254 276 219 205 203 199 205 199 209 201 209 196 211 225 245 235 247 250 250 251 238 235 238 236 243 252 247
237 235 233 228 226 225 226 222 218 218 209 207 207 207 211 217 230 223 236 248 239 212 207 200 190 187 168 162 177 164 216 226 229 228 239 221 239 236 251 256 256 250 251 246 249
238 235 229 227 223 225 226 227 214 213 209 204 206 205 223 227 219 212 219 225 205 209 214 213 201 193 160 128 110 209 239 242 206 202 223 206 258 238 256 232 251 253 250 248 245
240 236 233 226 222 219 222 217 211 211 207 199 201 201 226 218 215 216 205 210 191 197 203 205 199 190 148 183 185 207 239 231 253 206 216 210 258 255 250 238 255 260 258 253 253
234 233 230 225 218 219 219 216 217 208 199 193 203 197 221 202 197 204 200 195 168 176 164 174 184 200 200 200 214 202 218 219 226 194 226 237 247 262 254 249 255 264 260 261 255
230 229 227 226 218 211 206 198 187 188 187 193 195 201 189 185 199 199 193 175 168 184 190 196 200 210 203 216 226 249 225 232 236 229 250 246 252 253 263 262 263 257 259 262 262
228 226 218 222 218 213 211 207 206 180 182 208 217 201 192 176 171 191 186 180 185 195 195 182 219 213 210 202 214 222 227 226 252 245 255 269 263 252 262 259 254 257 257 258 263
221 222 218 215 214 211 210 210 195 182 170 208 216 201 184 186 177 184 185 189 188 196 196 208 215 188 188 197 209 220 225 233 248 307 271 283 279 262 244 259 256 253 253 258 258
216 215 216 212 211 211 217 204 195 182 202 177 204 209 196 184 198 188 187 174 177 199 198 219 190 184 179 201 192 228 202 239 246 277 262 12 283 275 260 254 257 246 244 250 254
220 215 214 209 202 204 214 211 214 171 224 161 186 200 184 181 148 183 189 192 189 155 165 194 183 186 200 203 194 238 162 216 232 240 270 259 271 256 246 255 260 257 254 254 254
207 213 206 205 208 209 200 203 193 222 204 155 157 175 160 199 190 159 172 191 177 162 191 186 225 189 193 169 191 146 138 140 175 228 245 241 234 270 250 256 252 259 259 263 263
203 213 206 204 206 194 191 168 204 217 144 167 164 165 173 177 184 176 176 172 173 165 180 95 161 138 163 153 166 181 175 190 208 207 243 276 210 250 278 291 279 266 262 273 272
211 211 209 209 202 192 183 188 219 137 163 158 168 168 175 163 180 186 190 185 196 187 154 186 201 182 167 197 177 193 188 194 207 208 215 129 224 257 68 270 266 263 272 281 276
205 210 210 207 202 196 186 199 204 161 167 156 162 161 150 179 179 173 203 195 185 187 174 177 180 169 186 166 159 189 213 218 313 106 266 224 254 277 264 261 260 263 269 278 289
206 205 209 201 202 200 199 204 152 154 150 159 170 168 163 173 175 193 188 199 178 195 192 177 158 230 151 165 223 186 161 163 180 217 236 248 254 254 247 277 132 257 315 303 333
201 204 212 200 198 200 217 200 134 168 165 165 167 174 182 171 191 195 184 158 188 192 173 159 126 136 170 207 180 166 197 207 203 207 234 262 245 248 273 269 257 277 330 336 339
190 189 203 200 217 208 205 171 145 165 177 172 172 189 175 174 174 173 184 165 175 170 180 162 116 141 195 20 307 215 203 194 199 201 239 267 270 264 278 174 205 303 341 339 329
181 188 187 188 209 183 159 151 159 168 164 171 157 192 164 164 179 183 190 144 179 172 178 171 156 130 123 246 228 223 218 225 229 190 220 211 249 82 60 231 197 333 330 320 316
205 163 161 182 201 196 144 153 143 171 154 126 143 142 142 159 103 167 168 127 185 181 169 155 152 202 212 190 153 204 212 214 212 218 232 222 252 270 244 260 280 305 312 303 308
213 167 168 167 186 220 148 151 141 150 136 147 161 160 152 151 143 157 154 134 171 172 162 154 204 204 175 120 193 222 209 208 211 223 222 241 240 256 265 271 283 298 292 303 307
250 98 162 117 150 172 158 165 156 164 158 169 164 166 160 162 172 155 147 171 170 183 170 176 154 153 219 174 225 248 235 216 216 224 228 245 263 254 268 275 283 283 297 301 306
171 121 30 152 158 173 178 166 163 155 224 154 157 155 166 164 151 165 166 171 157 176 179 157 141 165 218 221 239 275 234 225 227 228 228 232 239 258 270 270 269 284 278 299 302